This is the latest recevied weather packets stored in our database for station/object KA1AL. If no packets are shown the sender has not sent any weather packets the latest 10 day(s).
| Time | Temp. | Humidity | Pressure | Rain* | Wind** | Luminosity | Snow |
|---|---|---|---|---|---|---|---|
| 1778161997 | 11.11° C | 83% | 1004.2 hPa | 0 mm | - | 687 W/m² | - |
| 1778161694 | 10.56° C | 84% | 1004.2 hPa | 0 mm | - | 682 W/m² | - |
| 1778161390 | 10.56° C | 85% | 1004.5 hPa | 0 mm | - | 672 W/m² | - |
| 1778161085 | 10° C | 84% | 1004.2 hPa | 0 mm | - | 658 W/m² | - |
| 1778160782 | 10° C | 83% | 1004.2 hPa | 0 mm | - | 650 W/m² | - |
| 1778160480 | 10° C | 87% | 1004.4 hPa | 0 mm | - | 643 W/m² | - |
| 1778160176 | 10° C | 86% | 1004.2 hPa | 0 mm | - | 639 W/m² | - |
| 1778159873 | 10° C | 88% | 1004.6 hPa | 0 mm | - | 621 W/m² | - |
| 1778159570 | 10° C | 88% | 1004.6 hPa | 0 mm | - | 616 W/m² | - |
| 1778159267 | 9.44° C | 88% | 1004.5 hPa | 0 mm | - | 600 W/m² | - |
| 1778158965 | 9.44° C | 88% | 1004.7 hPa | 0 mm | - | 575 W/m² | - |
| 1778158663 | 8.89° C | 88% | 1004.7 hPa | 0 mm | - | 551 W/m² | - |
| 1778158361 | 8.89° C | 89% | 1004.7 hPa | 0 mm | - | 493 W/m² | - |
| 1778158057 | 8.33° C | 89% | 1004.7 hPa | 0 mm | - | 450 W/m² | - |
| 1778157754 | 8.33° C | 91% | 1004.7 hPa | 0 mm | - | 442 W/m² | - |
| 1778157452 | 8.33° C | 90% | 1004.4 hPa | 0 mm | - | 414 W/m² | - |
| 1778157150 | 7.78° C | 90% | 1004.6 hPa | 0 mm | - | 393 W/m² | - |
| 1778156844 | 7.78° C | 91% | 1004.8 hPa | 0 mm | - | 372 W/m² | - |
| 1778156541 | 7.78° C | 91% | 1004.7 hPa | 0 mm | - | 356 W/m² | - |
| 1778156236 | 7.78° C | 92% | 1005 hPa | 0 mm | - | 341 W/m² | - |
| 1778155933 | 7.22° C | 92% | 1004.9 hPa | 0 mm | - | 210 W/m² | - |
| 1778155629 | 7.22° C | 93% | 1005.1 hPa | 0 mm | - | 360 W/m² | - |
| 1778155326 | 6.67° C | 92% | 1004.9 hPa | 0 mm | - | 183 W/m² | - |
| 1778155022 | 6.67° C | 93% | 1004.9 hPa | 0 mm | - | 305 W/m² | - |
| 1778154718 | 6.67° C | 94% | 1005 hPa | 0 mm | - | 101 W/m² | - |
* Rain latest hour (hover to see other rain measurements)
** Current wind speed in m/s (hover to see current wind gust speed)